This demonstration page uses our WeatherBlox Daily Observations layout. Learn more.

Left ArrowRight Arrow

34.02893, -84.19858

Hourly Observations for March 17, 2016

Temp ( °F °C ) Dew Point ( °F °C ) Humidity (%) Winds ( mph kmh ) Pressure ( in mb ) Visibility ( mi km ) Precip ( " mm )
12:53 am 00:53 Clear 52 11.1 39 3.9 61 61 Calm 29.94 1014 10 16 0.00 0.00
1:53 am 01:53 Clear 54 12.2 40 4.4 59 59 Calm 29.93 1014 10 16 0.00 0.00
2:53 am 02:53 Mostly Cloudy 53 11.7 41 5 64 64 Calm 29.94 1014 10 16 0.00 0.00
3:53 am 03:53 Mostly Cloudy 52 11.1 42 5.6 69 69 Calm 29.93 1013 10 16 0.00 0.00
4:53 am 04:53 Clear 50 10 41 5 71 71 Calm 29.92 1013 10 16 0.00 0.00
5:53 am 05:53 Clear 50 10 41 5 71 71 Calm 29.94 1014 10 16 0.00 0.00
6:53 am 06:53 Clear 48 8.9 41 5 77 77 Calm 29.96 1014 10 16 0.00 0.00
7:53 am 07:53 Sunny 48 8.9 42 5.6 80 80 SSW 5 7 29.98 1015 10 16 0.00 0.00
8:53 am 08:53 Sunny 55 12.8 44 6.7 67 67 Calm 29.99 1016 10 16 0.00 0.00
9:53 am 09:53 Sunny 62 16.7 37 2.8 40 40 Calm 29.98 1015 10 16 0.00 0.00
10:53 am 10:53 Sunny 68 20 37 2.8 32 32 WNW 3 6 29.99 1016 10 16 0.00 0.00
11:53 am 11:53 Sunny 72 22.2 35 1.7 26 26 NW 10 17 29.98 1015 10 16 0.00 0.00
12:53 pm 12:53 Sunny 74 23.3 33 0.6 22 22 WNW 12 19 29.98 1015 10 16 0.00 0.00
1:53 pm 13:53 Sunny 75 23.9 34 1.1 22 22 undefined N/A 29.96 1015 10 16 0.00 0.00
2:53 pm 14:53 Sunny 76 24.4 33 0.6 21 21 NNW 15 24 29.93 1014 10 16 0.00 0.00
3:53 pm 15:53 Sunny 76 24.4 31 -0.6 19 19 WNW 14 22 29.91 1013 10 16 0.00 0.00
4:53 pm 16:53 Sunny 76 24.4 26 -3.3 16 16 WNW 9 15 29.89 1012 10 16 0.00 0.00
5:53 pm 17:53 Sunny 75 23.9 25 -3.9 15 15 WNW 5 7 29.88 1012 10 16 0.00 0.00
6:53 pm 18:53 Sunny 71 21.7 28 -2.2 20 20 NW 9 15 29.90 1012 10 16 0.00 0.00
7:53 pm 19:53 Clear 68 20 29 -1.7 23 23 N 7 11 29.91 1013 10 16 0.00 0.00
8:53 pm 20:53 Clear 67 19.4 31 -0.6 26 26 N 7 11 29.94 1014 10 16 0.00 0.00
9:53 pm 21:53 Clear 67 19.4 31 -0.6 26 26 NNW 7 11 29.94 1014 10 16 0.00 0.00
10:53 pm 22:53 Clear 64 17.8 34 1.1 33 33 Calm 29.93 1013 10 16 0.00 0.00
11:53 pm 23:53 Clear 63 17.2 36 2.2 37 37 WNW 3 6 29.92 1013 10 16 0.00 0.00

Powered by AerisWeather